Theta_e
335 337 340 342 345 349 352 353 351 351 351 351 348 347 347 344 345 343 345 345 343 342 342 341 339 338 339 338 339 341 340 341 341 343 338 336 341 342 342 346 341 345 345 345 347 349 348 349 350 349 348 345 346 345 347 347 343 341 340 338 337 334 336 339 341 337 333 330 332 332 332 336 336 335 334 332 327 325 323 323 324 319 318 317 316
333 334 339 341 344 349 351 352 350 349 349 350 348 347 347 345 345 343 344 345 344 343 342 342 341 339 338 337 340 340 339 338 338 342 339 337 342 343 343 345 343 345 345 344 347 348 347 348 348 348 347 345 347 348 347 347 345 341 336 333 337 336 335 336 336 337 329 326 324 325 328 331 334 334 332 331 331 324 324 323 324 319 317 315 318
328 329 335 344 346 348 351 351 350 350 349 349 348 348 347 345 345 345 344 345 344 344 343 342 343 343 340 339 340 340 340 341 339 342 341 336 341 343 346 344 344 344 345 344 346 347 347 347 346 347 347 347 346 346 346 345 345 343 339 335 332 336 336 337 337 336 330 329 327 324 321 321 325 327 330 331 330 327 323 321 322 319 317 315 317
325 327 330 343 345 348 349 350 349 350 349 348 348 348 346 345 345 345 345 345 344 344 344 345 345 346 345 343 342 341 338 340 344 344 343 336 337 342 346 344 344 343 343 343 343 345 347 347 347 346 347 347 346 345 345 345 342 343 342 340 335 330 331 333 338 337 331 328 321 322 322 321 317 320 323 327 330 326 325 321 322 320 318 315 314
323 327 328 340 345 346 347 349 350 348 349 348 349 348 347 345 345 344 345 344 345 345 345 345 345 345 344 344 343 344 344 340 341 339 342 336 335 339 341 345 344 343 343 342 341 345 347 347 346 346 347 347 347 345 343 344 343 341 342 340 337 333 330 331 332 337 337 333 331 324 321 319 318 321 322 324 327 324 323 324 323 321 318 315 313
319 326 327 330 342 345 346 349 348 348 349 349 349 349 349 347 345 345 345 345 345 346 346 345 344 342 342 340 336 336 337 336 335 336 339 335 332 337 339 344 344 342 343 342 341 344 346 347 347 345 346 347 346 345 345 346 344 341 341 340 339 337 332 330 331 336 338 335 335 334 332 324 324 322 322 316 325 326 324 323 322 321 320 317 313
318 323 326 328 330 345 347 348 349 349 349 351 350 350 350 348 347 346 345 345 347 347 346 345 343 342 341 339 338 336 337 338 340 343 341 338 338 338 339 343 343 342 342 342 342 342 346 346 347 346 346 347 346 345 344 346 345 343 342 341 340 338 334 328 329 332 335 336 336 336 335 334 334 324 319 320 315 321 324 321 320 320 321 319 314
317 317 322 328 329 338 345 346 346 348 350 350 350 350 349 348 347 346 346 345 346 347 345 345 343 342 341 339 339 338 339 339 340 342 345 342 340 340 339 342 342 342 342 341 342 343 344 346 346 346 345 345 344 343 344 346 346 344 344 342 341 340 338 334 333 333 331 331 335 334 334 334 334 331 330 325 320 315 315 322 322 320 320 319 318
316 318 319 328 329 332 342 346 347 347 349 348 348 350 350 349 347 347 346 346 346 346 344 345 345 344 342 340 339 340 340 342 342 342 344 344 341 341 338 338 340 341 341 342 341 342 343 344 345 345 345 344 343 343 344 346 346 343 343 342 341 340 340 339 336 334 334 332 332 332 333 332 331 331 331 329 322 319 317 316 315 320 321 319 319
316 317 319 324 333 334 338 346 347 348 349 349 349 350 349 348 347 347 347 346 346 347 345 345 346 345 343 341 341 340 340 342 342 341 343 344 341 340 339 338 338 340 340 340 341 341 343 343 344 344 345 344 342 343 343 344 345 344 344 342 341 340 341 338 336 336 334 334 334 333 330 329 328 327 325 324 323 322 318 316 316 314 313 316 320
314 315 317 321 335 336 339 343 346 348 350 349 348 348 348 347 347 346 348 348 346 347 346 345 346 345 343 342 342 341 340 341 341 341 342 343 342 340 340 339 339 340 342 341 341 342 344 343 343 344 345 344 343 342 342 343 345 344 344 343 342 340 339 338 337 336 335 336 335 333 330 329 326 323 323 323 321 319 318 318 317 316 314 314 317
313 314 314 317 335 343 343 343 345 347 349 348 348 348 348 348 348 346 348 348 347 348 347 346 346 345 345 344 343 343 342 340 341 340 341 342 342 340 341 340 340 342 342 342 342 343 344 343 344 344 343 344 343 344 344 343 345 344 344 342 341 340 340 338 337 335 336 335 334 334 333 332 331 327 328 328 324 321 322 320 319 318 317 317 319
311 313 316 319 323 337 337 338 343 343 343 348 348 347 349 349 348 346 346 348 348 348 348 346 346 345 345 344 344 345 344 341 341 342 342 342 342 342 341 339 340 340 341 341 342 343 343 343 343 343 343 344 344 344 344 343 344 343 342 342 341 340 339 338 337 336 336 334 334 335 335 333 332 332 331 330 329 328 326 321 322 321 318 317 317
310 312 312 314 317 326 337 335 337 340 344 346 347 346 347 347 347 346 346 348 348 347 347 346 345 345 346 345 345 345 345 343 343 342 343 343 343 343 341 340 340 340 341 341 342 343 343 344 344 344 345 345 344 344 343 343 344 342 341 341 340 340 340 339 338 338 338 337 337 334 333 332 331 332 331 330 328 327 324 322 321 322 321 318 315
310 310 310 312 314 316 329 336 336 339 347 347 347 346 346 346 346 345 346 347 347 347 347 346 345 345 346 346 346 346 345 344 344 344 344 343 343 343 343 343 342 342 342 343 343 343 343 344 344 344 344 344 344 344 344 343 344 342 341 340 340 341 340 339 338 338 335 335 334 333 333 332 331 332 332 331 330 328 327 325 323 319 318 318 313
309 310 311 312 314 315 317 333 335 341 345 347 348 348 347 346 345 345 345 346 346 346 347 347 346 346 347 347 347 346 345 346 345 345 346 345 345 344 345 344 344 344 344 344 344 343 343 343 343 343 344 345 344 344 343 342 342 341 339 340 340 341 338 339 337 336 335 335 334 333 332 331 332 333 332 331 331 331 330 329 326 322 317 313 315
309 311 311 314 315 318 318 325 336 344 345 346 349 350 350 348 347 346 345 345 345 346 346 347 348 347 348 349 349 347 346 345 345 345 346 347 346 346 346 345 346 345 344 344 344 344 343 343 342 342 344 345 344 343 343 342 342 340 339 339 338 337 337 336 336 335 335 335 335 334 332 332 333 333 332 332 333 331 330 329 327 322 321 315 312
309 310 310 315 317 319 321 325 331 341 344 348 349 352 352 350 349 347 346 346 346 345 346 348 348 348 348 349 349 349 347 346 346 345 346 347 346 346 346 345 345 346 345 345 344 343 343 343 342 341 343 344 344 343 342 342 341 340 339 338 338 337 336 336 336 335 334 334 334 334 333 332 332 332 332 332 331 331 328 327 326 325 323 318 315
308 308 308 308 310 320 326 328 335 340 345 349 348 350 350 351 350 349 348 348 348 347 347 349 350 349 349 349 349 349 349 348 347 347 347 347 346 346 345 345 346 346 344 344 344 343 343 343 342 341 343 344 344 343 342 342 340 339 338 337 337 337 335 334 334 334 334 333 332 331 332 331 332 332 331 331 330 329 329 327 326 325 323 322 319
307 307 307 307 309 314 324 338 330 334 337 346 346 347 348 349 349 350 349 348 348 347 347 347 349 349 348 349 349 349 349 348 348 347 346 346 347 346 345 345 345 346 345 344 343 342 342 342 342 342 342 343 343 343 342 341 340 339 338 337 336 336 334 333 332 333 333 333 331 330 330 330 331 330 330 331 329 329 329 326 324 324 321 320 319
307 307 307 309 311 316 318 323 323 324 331 336 342 346 347 347 348 349 349 348 347 347 347 347 348 349 348 348 349 349 348 349 348 348 347 346 346 346 345 345 346 345 345 344 343 342 342 342 342 340 341 342 342 342 341 340 339 338 337 336 336 334 332 332 331 330 330 330 331 330 330 330 331 330 329 328 324 325 325 325 324 320 318 318 317
315 313 310 309 311 319 327 322 326 330 322 326 328 332 335 340 344 345 345 347 347 347 348 348 348 348 347 347 348 349 349 349 348 347 346 346 346 346 346 345 345 345 345 343 343 342 342 341 340 340 340 341 341 341 340 339 338 337 336 336 335 333 331 330 330 328 329 329 328 327 327 328 329 327 325 324 324 323 322 320 319 319 315 316 317
316 318 321 320 323 324 324 323 328 332 331 325 324 325 328 335 340 342 342 343 345 345 346 348 348 348 348 348 349 349 349 349 348 347 347 346 346 346 346 344 344 345 344 343 342 342 342 341 340 339 339 340 340 340 340 339 338 336 335 334 334 332 330 329 329 328 328 329 328 327 326 326 329 325 325 323 323 320 319 317 316 314 314 314 315
317 315 315 317 319 321 319 319 320 324 328 330 332 325 326 329 334 336 339 341 340 337 335 334 337 344 349 349 348 348 348 348 347 347 347 347 347 346 346 345 344 345 344 343 343 343 342 341 340 339 339 339 339 339 339 339 337 336 335 334 333 332 331 330 329 328 328 328 326 325 325 325 325 323 322 321 320 319 317 315 314 313 313 315 314
314 314 314 316 315 315 314 315 315 318 319 325 325 325 326 326 329 329 334 339 338 334 332 332 332 334 346 348 347 348 347 347 347 347 348 348 347 347 346 344 344 344 344 343 342 342 341 340 340 338 338 337 338 339 339 338 337 336 335 334 332 331 332 330 329 329 330 327 326 324 324 324 323 320 319 318 317 316 314 313 311 310 309 313 315
311 312 314 314 313 312 313 315 317 318 316 317 322 324 323 323 327 330 329 333 336 334 332 331 330 332 342 347 347 347 346 346 347 347 348 348 348 347 346 345 344 343 343 342 341 342 340 339 339 338 338 337 338 339 339 337 336 335 334 333 332 331 331 331 330 329 328 327 325 323 323 323 321 319 318 317 315 314 312 311 310 309 309 313 314
309 310 311 313 313 313 314 315 316 317 318 317 317 318 319 321 321 323 330 331 333 337 337 336 336 340 346 346 347 346 346 346 346 347 348 348 348 347 346 345 344 344 342 341 342 341 341 340 340 339 338 337 337 339 339 337 336 335 334 333 332 330 330 329 329 328 328 326 324 323 322 322 320 319 318 316 314 312 312 311 311 311 311 313 311
307 308 309 310 312 313 314 315 316 315 316 316 318 318 318 318 319 320 321 330 334 336 337 338 338 340 345 346 346 346 345 346 347 347 347 348 348 347 346 345 344 343 342 342 341 341 341 341 340 339 339 337 336 337 337 337 336 335 333 333 332 329 329 328 328 328 327 325 323 322 322 321 320 319 318 315 315 312 311 311 310 311 314 311 308
303 306 307 308 310 312 313 314 314 316 316 317 319 320 320 320 320 319 320 323 334 335 335 336 337 338 342 346 347 346 345 345 345 346 347 347 347 347 347 345 344 343 343 342 342 342 341 340 340 339 338 337 337 337 337 337 335 334 333 332 331 329 328 327 328 327 326 324 322 321 321 320 321 322 318 316 316 315 312 310 310 312 310 308 305
303 304 306 309 310 311 312 314 314 314 314 314 316 317 318 319 321 321 320 321 330 333 333 334 335 337 342 345 347 346 345 345 345 345 346 347 347 347 347 345 344 343 343 342 342 342 341 341 339 339 338 338 337 337 329 321 323 332 333 332 331 329 328 327 326 324 323 322 321 320 321 322 319 317 313 309 307 309 313 314 311 311 308 306 304
302 304 305 307 308 310 311 312 313 314 315 316 318 319 319 320 321 322 322 321 323 333 334 334 333 335 339 343 346 346 345 345 344 344 345 346 346 346 346 345 344 343 342 342 342 341 341 341 340 338 338 338 337 336 317 312 312 316 330 331 330 328 327 327 325 324 321 320 319 319 319 320 317 315 310 303 301 300 300 304 308 311 313 307 305
302 303 304 305 306 308 309 311 313 315 316 317 319 320 320 321 321 321 322 323 322 326 333 334 335 336 337 340 342 343 344 343 344 343 344 345 345 346 345 345 344 342 342 342 341 341 341 341 340 339 338 338 337 323 309 309 310 310 318 330 328 327 326 325 325 323 320 319 318 317 318 316 314 311 307 304 302 299 297 297 296 297 296 295 300
303 304 304 305 306 306 309 315 320 318 316 318 319 319 320 323 326 324 323 322 322 323 329 334 337 336 335 336 336 337 338 341 343 343 344 344 344 345 345 344 343 343 342 341 340 341 341 341 340 339 338 338 338 313 306 307 307 307 310 321 327 327 325 325 325 322 319 318 317 317 315 314 313 312 311 307 304 301 300 299 299 299 298 296 293
304 304 304 305 306 310 315 321 323 319 320 321 322 322 323 324 328 328 326 325 323 320 323 331 334 336 335 334 334 334 334 337 342 343 343 342 342 343 344 345 343 342 341 341 340 340 340 340 340 339 338 338 338 308 305 305 306 305 306 315 327 326 326 326 324 321 319 318 317 316 313 312 312 310 309 308 306 304 302 303 305 306 305 301 297
305 306 306 309 317 316 317 318 318 320 324 324 323 323 324 323 324 328 329 328 327 327 326 326 331 334 334 333 333 333 333 335 337 341 342 341 342 342 343 344 343 342 341 339 339 339 339 339 339 339 339 337 338 303 303 303 304 305 305 313 327 327 326 326 323 320 319 318 317 317 314 312 311 310 310 309 307 305 304 305 304 306 307 307 307
306 307 309 312 314 317 317 317 318 319 321 319 320 322 321 321 322 325 330 331 330 327 326 327 329 331 333 333 333 333 333 333 335 339 340 340 340 342 342 343 342 342 341 340 339 339 338 339 340 339 338 337 329 300 302 302 303 304 305 324 326 326 325 323 321 320 319 318 317 316 314 312 312 310 307 301 304 305 303 303 304 303 304 306 308
308 309 309 311 313 314 314 316 321 323 321 322 323 323 322 321 320 322 328 329 330 330 329 327 328 331 330 330 332 335 333 333 333 335 338 338 339 341 342 342 341 341 340 339 338 338 339 339 339 338 337 336 321 302 301 302 303 302 309 325 325 324 323 322 320 319 318 317 317 316 315 313 312 310 303 297 299 303 303 303 303 303 304 304 305
308 308 309 311 312 312 313 320 322 323 324 324 324 324 322 321 320 321 322 326 327 327 328 327 326 330 330 330 330 332 332 331 332 333 335 339 339 341 342 341 341 340 339 339 338 338 339 338 337 337 337 336 319 305 300 301 302 302 313 325 325 323 321 321 321 319 318 317 316 316 317 314 311 309 297 296 297 303 304 303 303 302 301 302 305
310 311 311 313 316 313 312 314 320 319 321 323 325 325 323 320 319 318 320 322 327 327 327 328 329 329 331 330 330 332 331 331 330 330 334 338 338 339 341 342 341 340 339 340 337 338 338 338 338 338 327 332 318 307 299 301 301 302 314 325 325 323 321 321 321 317 316 315 315 314 314 312 311 305 295 296 296 304 306 304 303 301 299 301 304
311 312 311 313 315 315 316 317 316 318 320 321 322 322 322 320 318 318 319 320 324 330 331 331 332 334 333 332 330 330 329 329 330 331 333 338 338 339 340 341 340 340 339 339 337 337 336 337 337 336 333 332 319 311 303 300 301 301 308 324 325 323 321 320 318 315 314 313 314 313 309 301 300 296 295 295 296 300 306 305 303 301 300 302 306
311 312 310 311 311 313 313 314 315 318 320 321 321 321 321 320 319 319 321 323 327 330 334 335 334 330 329 327 326 330 333 331 331 332 335 337 338 338 340 340 339 339 338 337 336 336 336 336 336 336 335 332 320 313 305 298 300 301 304 313 324 323 322 319 316 313 313 313 312 312 311 299 295 295 295 295 296 297 301 305 304 302 302 304 304
312 311 312 313 312 314 314 314 316 317 319 320 320 321 321 320 318 317 320 327 329 333 335 334 333 330 327 326 327 328 329 329 328 327 328 333 338 339 339 340 339 338 336 336 335 333 334 334 334 335 334 332 317 310 308 298 299 300 302 306 321 323 320 318 315 313 313 312 312 312 308 298 295 295 296 296 296 296 297 306 304 299 298 298 306
312 312 312 312 312 312 312 314 315 318 319 320 321 320 320 318 317 318 324 331 333 337 334 332 330 328 330 328 328 329 328 328 327 327 326 328 334 338 339 339 338 336 335 334 334 333 333 333 333 333 332 330 317 311 304 302 298 299 301 303 307 313 304 317 315 313 313 312 313 311 306 297 294 295 295 296 296 296 296 303 296 294 295 295 300
313 312 312 312 312 312 313 316 317 318 319 320 321 321 321 320 320 322 330 334 337 335 332 330 329 328 326 329 328 327 329 328 328 329 330 329 333 337 338 337 336 335 334 333 333 332 331 331 330 330 331 328 316 314 303 301 301 298 299 302 301 303 303 314 316 314 314 313 312 309 301 294 294 295 295 295 295 296 299 291 291 293 293 296 303
313 314 314 313 313 314 313 313 315 317 321 323 323 322 322 320 321 322 325 331 334 333 330 326 326 329 331 330 329 330 330 330 331 331 330 330 331 336 336 336 335 334 334 332 332 330 329 329 329 329 329 326 317 314 307 301 299 298 299 299 298 300 301 303 314 314 312 312 304 299 294 293 294 294 294 294 294 295 293 291 292 291 298 300 301
315 315 316 315 315 317 319 318 319 321 323 324 325 324 321 321 322 322 327 334 332 330 328 326 325 324 326 327 326 326 329 329 332 333 332 334 332 334 334 335 334 334 333 331 330 329 328 328 327 328 327 323 316 312 307 304 301 301 300 297 297 298 301 302 307 310 302 298 295 294 293 293 293 294 296 298 298 297 292 292 291 294 302 300 300
312 314 315 318 318 318 318 319 320 323 323 325 325 325 324 323 325 327 324 328 330 329 326 325 325 325 324 324 323 324 326 328 330 331 334 334 333 335 334 331 333 333 332 330 329 327 326 326 325 326 324 316 314 311 307 304 303 303 304 302 301 302 299 300 306 304 298 299 296 296 296 295 296 294 295 296 297 294 294 296 297 300 302 301 301
314 314 315 315 316 317 318 319 319 321 322 323 323 323 325 326 324 325 326 329 328 327 326 326 326 325 323 322 322 312 318 326 329 329 330 333 334 335 334 332 332 332 331 329 328 325 324 325 325 325 322 314 312 311 307 304 304 304 306 304 305 305 306 308 305 304 303 301 300 296 295 298 297 297 298 299 298 296 296 296 298 299 301 301 301
313 313 313 313 316 316 317 318 318 316 318 319 319 320 322 323 324 323 323 322 324 322 323 323 324 324 324 323 322 322 322 322 324 326 328 331 333 334 333 333 335 335 333 330 329 327 325 327 326 325 322 315 311 310 308 301 305 301 304 307 306 306 308 308 304 299 302 301 299 298 298 297 297 297 296 298 297 295 295 295 298 298 299 299 299
313 313 314 314 316 316 315 316 317 317 318 316 319 320 322 323 324 323 324 324 325 325 324 323 322 321 321 321 320 321 321 321 322 323 323 324 309 311 324 333 332 318 312 313 314 326 328 328 327 326 325 320 313 312 300 299 299 298 299 300 301 301 301 304 298 295 299 300 300 299 298 297 297 298 297 296 297 296 295 294 295 294 296 296 297
312 312 312 312 315 316 315 314 318 318 319 319 319 320 322 323 324 325 325 325 326 325 323 322 322 321 317 319 318 318 321 322 322 321 321 320 319 312 298 306 315 309 306 305 307 308 310 312 322 325 318 306 303 300 298 298 297 297 297 298 298 298 298 297 294 299 300 298 297 296 296 298 297 299 297 297 297 296 293 293 294 295 297 296 294
Wind_Speed
13 13 12 11 12 12 11 11 14 14 15 15 15 15 14 14 13 13 10 11 10 10 9 9 9 9 8 8 8 8 7 7 7 5 8 7 7 9 11 8 10 8 9 7 6 6 5 4 5 5 4 4 5 5 4 4 6 5 7 3 5 6 3 2 2 4 5 4 2 1 2 1 1 1 2 5 4 4 4 3 3 5 4 4 4
14 11 11 13 13 13 12 11 12 15 14 15 16 16 15 15 14 14 12 12 11 11 10 10 9 9 8 8 7 8 9 9 8 6 8 8 7 8 11 9 10 8 7 8 6 6 6 5 5 5 5 6 5 5 4 4 7 8 9 6 4 4 4 4 4 4 3 5 5 2 1 1 2 2 4 6 2 5 6 5 4 5 5 5 4
16 17 14 13 13 15 13 13 13 14 16 16 16 15 15 15 13 13 12 12 11 11 11 11 9 8 8 8 8 8 9 8 8 7 7 9 6 7 8 10 10 8 8 8 7 7 6 5 7 6 5 5 5 5 5 6 5 7 10 11 7 3 2 2 6 5 4 5 4 3 3 3 3 3 5 6 6 3 6 6 5 5 6 6 5
16 18 16 17 14 14 13 13 14 13 13 12 12 14 14 13 13 13 13 12 12 12 11 10 9 8 8 8 8 9 9 9 7 7 7 9 8 8 7 9 9 8 9 8 8 7 7 6 5 7 6 5 5 5 5 5 6 5 6 7 9 5 3 5 6 5 3 6 6 6 6 6 4 8 8 7 6 5 4 6 5 6 6 7 6
10 17 16 16 17 16 16 15 14 14 15 15 14 14 12 15 16 16 14 13 12 12 12 10 10 8 9 7 7 5 6 8 8 8 7 8 7 8 8 10 9 8 9 9 8 7 7 6 5 6 6 6 5 5 5 6 6 6 7 7 9 8 5 4 4 6 8 8 5 5 3 4 6 4 8 4 5 5 6 4 5 5 4 6 7
13 16 18 16 17 16 15 16 16 14 15 15 16 16 14 15 16 15 13 13 13 13 12 11 11 11 10 10 11 10 8 10 11 10 9 9 9 8 9 9 10 9 8 10 9 7 8 8 6 6 6 6 6 5 5 5 6 7 7 7 7 9 8 5 4 5 6 9 7 4 1 2 1 6 7 4 5 3 4 6 4 5 4 5 6
13 11 17 17 14 16 17 17 16 16 15 14 15 16 16 16 16 17 14 13 12 12 14 10 11 11 12 11 10 12 10 8 7 6 8 9 7 9 9 8 10 10 8 9 8 8 7 7 7 6 6 6 6 5 5 6 5 6 6 7 6 7 11 9 9 7 5 6 7 6 3 3 2 4 4 4 4 4 5 6 6 6 4 3 6
12 16 16 16 15 16 17 17 16 16 14 14 14 14 16 16 16 17 13 13 13 14 15 13 12 12 11 11 9 10 10 9 10 8 7 9 9 10 9 8 10 10 9 9 9 8 8 8 7 6 5 6 6 6 5 5 5 5 5 6 6 6 8 9 9 8 8 6 5 5 4 3 3 3 1 1 2 5 4 3 5 5 5 5 4
15 10 14 14 18 16 15 17 17 17 15 16 15 14 14 14 15 17 16 14 13 15 16 16 13 12 11 10 10 9 10 8 9 9 7 9 10 8 10 10 10 10 10 9 9 9 8 8 8 8 7 6 7 6 5 6 6 6 6 5 6 5 6 6 7 7 7 5 4 6 4 4 3 3 3 4 2 2 5 7 4 4 4 5 6
18 18 14 15 20 18 16 14 15 15 16 17 16 14 14 14 13 15 16 14 13 14 15 17 15 11 11 12 12 11 10 8 9 10 9 9 10 10 10 9 9 8 9 10 9 10 9 8 8 9 8 7 6 6 6 6 6 5 6 6 5 5 4 7 6 6 5 4 5 4 4 3 3 3 5 4 3 4 3 4 7 7 7 6 6
16 15 13 10 15 20 19 17 15 14 13 15 15 15 14 14 14 16 15 14 15 16 17 18 16 14 13 14 14 13 13 11 10 11 10 9 10 11 10 9 9 10 9 9 10 9 8 9 8 8 8 7 6 7 6 6 6 6 5 7 6 6 6 6 5 6 5 5 6 5 5 5 6 5 3 3 3 3 4 5 6 8 10 7 7
13 17 17 13 14 15 16 14 13 12 11 13 14 14 14 14 15 15 13 15 16 16 17 18 15 14 13 14 14 13 13 12 12 13 13 11 10 10 9 9 9 9 10 9 10 10 8 8 8 8 8 8 7 5 5 5 6 5 5 6 6 6 5 6 5 6 6 5 4 4 5 5 4 5 4 4 5 4 3 3 3 7 7 6 6
18 11 7 7 10 18 18 17 16 15 15 15 14 13 12 13 16 17 16 14 14 16 17 17 15 15 15 15 14 12 12 13 12 11 12 11 11 10 10 10 10 10 10 10 9 11 9 9 9 8 7 8 7 7 5 6 6 6 6 6 6 6 6 6 6 5 5 5 5 3 3 4 4 3 3 3 3 4 5 3 3 3 4 4 6
22 16 13 11 6 9 17 18 18 15 17 17 16 15 14 13 15 17 17 17 15 16 17 16 16 16 16 15 15 13 12 12 11 11 12 10 11 11 11 11 11 11 10 11 10 11 9 9 9 8 7 7 8 8 6 6 6 6 6 6 6 6 5 7 6 5 5 4 3 4 4 4 4 3 4 3 3 2 2 2 3 3 3 3 4
21 21 16 13 13 12 8 16 17 17 17 17 16 16 16 15 17 18 17 16 16 16 15 17 16 15 15 15 14 13 12 12 11 10 11 12 11 11 11 11 10 10 10 9 10 10 10 10 10 10 9 7 8 8 7 6 6 7 6 6 6 5 5 6 5 6 6 5 4 4 4 4 5 6 4 4 3 4 4 4 3 4 5 2 5
19 17 19 21 18 16 14 12 15 15 19 17 17 16 16 16 19 20 20 19 18 17 16 16 16 15 15 15 16 15 13 11 10 9 10 12 11 12 11 11 10 9 9 9 10 10 10 11 11 11 9 9 8 9 8 7 7 8 6 6 7 5 6 7 6 6 5 6 6 6 6 6 6 5 4 4 4 3 2 2 3 4 4 3 4
11 8 11 15 16 15 18 15 15 16 18 18 17 17 17 16 17 19 20 19 20 19 17 16 17 16 16 15 14 15 14 13 13 14 12 12 11 11 10 11 10 9 9 9 10 10 10 10 11 11 11 10 9 9 9 9 8 8 7 8 7 7 7 7 6 6 7 6 5 6 6 5 3 3 3 4 4 2 2 2 3 4 5 5 2
14 12 9 6 8 10 12 12 15 16 16 19 21 18 17 16 18 19 19 20 19 19 17 16 17 17 17 17 16 15 15 14 13 12 11 11 11 10 10 11 12 11 10 9 10 11 10 11 10 11 11 11 10 10 10 10 9 8 8 8 7 6 6 6 7 7 5 5 4 3 3 3 3 3 3 3 3 4 5 4 5 5 4 5 5
11 12 12 13 10 6 5 9 13 16 16 15 14 16 16 16 16 18 19 19 19 17 17 16 16 14 14 16 17 16 15 14 13 12 12 12 13 12 12 12 11 11 11 10 10 11 11 10 11 10 10 11 10 10 10 10 9 8 8 7 8 8 7 6 5 5 4 5 5 6 5 5 4 4 4 5 5 6 6 6 6 3 1 1 1
13 14 15 15 13 9 4 2 10 12 12 12 13 9 12 14 15 15 15 15 16 17 16 15 15 14 14 14 15 15 15 15 14 14 14 14 14 14 13 13 13 11 11 12 11 11 12 11 11 10 11 11 11 10 10 10 9 8 8 8 7 8 8 6 5 5 4 6 8 8 8 6 6 7 7 6 8 6 5 4 3 3 2 0 1
15 16 17 13 12 10 8 5 5 11 12 10 10 12 11 11 10 12 15 16 16 17 16 15 14 15 15 16 16 15 15 14 15 14 14 14 12 13 14 13 12 12 13 13 13 13 13 12 12 11 11 11 12 11 10 9 9 9 9 9 8 8 8 6 6 6 7 5 6 10 10 9 9 9 8 6 5 3 2 3 2 2 2 2 1
5 6 8 13 14 7 5 5 5 5 9 14 14 12 12 12 12 11 12 12 14 16 15 15 15 15 16 16 16 15 15 15 15 14 15 14 13 13 14 13 13 13 14 14 14 12 12 13 12 13 11 11 12 12 11 10 10 10 10 9 8 9 9 7 6 6 6 7 6 6 7 10 11 8 4 3 4 4 4 3 2 3 3 3 4
4 3 3 5 4 4 5 7 5 3 6 6 11 14 14 16 15 14 16 15 11 8 9 11 15 15 16 16 16 16 16 16 17 14 15 16 14 13 14 15 14 13 13 13 13 13 13 14 14 13 13 12 13 12 10 11 11 11 12 10 9 10 9 8 8 8 8 7 6 4 5 5 2 4 3 3 3 3 3 4 4 4 4 4 4
3 5 7 6 5 4 5 6 6 4 4 4 3 8 13 14 15 15 17 15 12 10 7 2 10 12 15 16 16 16 17 17 17 15 16 16 14 13 13 14 14 12 14 13 13 14 14 14 14 14 14 13 13 12 11 12 12 12 12 12 10 9 9 10 9 9 9 7 7 6 6 6 4 4 4 3 3 5 5 5 5 4 4 4 3
4 5 6 6 7 8 8 7 7 6 6 5 6 5 5 9 17 18 16 16 15 13 10 11 10 16 15 15 16 16 17 18 18 16 17 17 15 14 13 15 14 13 14 14 13 13 15 14 14 16 15 14 14 13 12 12 11 11 12 11 11 10 8 10 10 9 8 7 7 7 7 7 5 6 5 5 5 5 5 4 5 4 5 4 3
5 7 6 7 8 10 10 9 7 6 7 8 6 7 8 9 5 11 17 15 16 14 14 15 17 19 20 17 17 16 18 19 18 18 18 17 16 15 14 13 15 15 14 14 14 13 13 14 13 14 14 14 13 13 13 13 12 11 11 11 10 11 9 9 10 8 7 6 4 6 7 8 6 8 7 5 4 5 4 4 5 5 4 4 4
8 8 8 8 8 10 12 11 10 9 7 8 9 10 11 10 11 10 8 16 16 16 18 19 19 20 17 17 16 17 17 18 18 17 16 16 16 15 15 15 14 15 15 14 15 14 12 14 13 13 14 14 13 13 13 13 13 12 12 11 11 11 9 8 7 7 7 7 7 7 7 7 7 7 6 6 5 5 5 5 5 5 4 6 6
10 9 10 11 10 9 9 10 10 11 11 10 8 10 11 13 14 13 13 9 11 15 18 19 18 17 15 17 17 16 16 17 17 17 16 16 16 16 15 15 14 15 16 17 16 15 12 12 13 14 15 14 13 14 14 13 13 13 12 11 11 11 11 9 9 9 9 7 7 7 7 6 7 7 6 6 6 7 5 5 5 4 5 7 6
16 9 11 12 11 9 11 13 12 12 12 12 11 10 10 10 13 16 16 13 12 15 17 17 17 17 17 16 15 15 15 15 16 17 16 16 16 16 15 14 14 14 14 16 14 14 13 14 14 14 15 13 12 13 12 13 14 14 12 12 12 12 12 11 10 9 7 6 6 7 7 6 7 9 10 8 7 7 6 6 5 4 6 6 5
16 17 13 9 10 11 14 13 13 14 12 12 12 13 14 13 11 13 15 15 12 15 16 17 17 17 16 16 15 14 15 15 15 16 16 16 16 16 15 15 16 16 15 15 14 14 14 14 15 14 14 13 12 11 14 19 17 13 12 11 11 11 12 11 10 8 6 6 7 6 6 10 12 12 12 12 11 9 5 5 5 5 6 5 6
18 19 16 9 13 13 12 13 13 11 11 12 12 12 12 13 14 12 13 14 14 15 17 17 18 17 16 16 15 14 15 16 15 15 15 16 17 15 15 16 15 15 16 15 15 15 15 14 15 14 14 13 12 11 18 21 21 19 13 11 11 11 11 11 10 10 9 8 6 7 5 8 11 9 9 12 11 10 8 7 8 7 5 4 5
18 17 17 13 15 15 14 14 13 12 12 12 12 10 11 13 14 15 13 13 15 14 17 17 18 16 16 14 12 12 14 16 16 16 16 17 16 16 16 17 16 15 14 14 15 16 16 14 13 15 14 13 12 13 20 21 21 20 17 12 10 10 10 10 10 10 8 7 7 7 5 6 6 9 8 9 10 11 11 10 10 11 10 10 6
17 17 17 17 17 16 15 10 6 8 10 11 11 9 9 10 10 12 14 13 12 12 15 17 16 17 15 13 13 13 13 14 16 17 16 16 17 17 17 16 17 16 14 15 17 16 15 15 14 15 15 14 12 14 20 21 21 20 20 16 11 11 11 11 10 11 10 8 7 7 6 6 7 15 11 9 8 8 9 11 10 10 9 9 7
17 19 20 20 17 10 5 3 3 7 10 9 10 9 10 10 9 9 11 13 12 14 12 14 16 17 16 15 15 15 14 14 15 17 17 17 18 18 17 16 15 14 15 15 16 17 15 16 15 15 14 13 12 13 21 22 21 21 20 17 11 12 12 11 10 11 10 10 9 8 8 7 8 9 8 10 8 8 7 6 5 4 4 5 6
17 18 17 10 3 6 7 7 7 6 6 6 10 9 11 14 11 9 9 12 14 13 12 12 16 16 16 16 17 17 16 13 13 16 17 17 18 17 17 16 14 16 17 17 17 18 17 16 14 14 14 13 11 17 21 22 22 22 21 17 11 11 11 10 10 10 11 10 10 9 9 9 9 9 8 10 9 8 7 6 4 4 4 4 3
16 16 14 8 6 5 6 8 8 9 8 8 9 9 11 14 16 11 9 11 14 15 16 12 14 16 17 18 19 18 16 16 18 19 18 18 18 18 18 15 14 14 14 14 13 14 15 14 15 15 14 14 10 20 21 23 23 21 22 14 11 11 10 9 9 9 10 10 10 10 9 10 9 10 11 15 12 9 7 7 6 4 4 4 3
19 16 14 15 11 10 11 12 8 6 8 7 7 8 10 13 16 13 10 12 12 13 15 15 12 17 17 17 16 15 16 16 13 15 18 19 18 18 17 14 15 15 15 16 16 16 16 16 15 15 15 14 10 18 22 23 23 23 18 13 11 10 10 10 10 9 9 9 10 11 10 10 10 10 13 16 15 13 7 8 7 6 5 5 5
22 19 17 16 16 14 14 8 10 9 8 8 7 7 8 11 14 14 14 12 13 14 14 15 12 12 15 16 15 14 13 14 14 16 20 18 17 16 17 16 17 16 16 17 16 15 15 15 16 16 15 14 10 16 22 23 24 24 21 15 11 11 11 11 11 10 8 9 10 16 13 11 10 10 15 16 16 13 9 9 8 8 8 7 6
19 12 9 11 12 16 17 13 8 9 9 8 8 8 8 10 13 16 17 16 12 13 14 15 14 11 14 16 14 12 13 12 12 16 19 18 18 17 16 15 15 15 16 16 15 14 15 14 14 15 17 14 12 16 22 24 25 25 21 14 12 12 12 12 10 10 9 8 9 12 16 12 11 13 19 17 17 14 9 9 9 9 9 8 7
20 18 15 12 8 11 8 8 10 10 9 10 10 9 10 12 15 15 17 15 13 14 14 14 14 5 4 7 7 12 16 16 18 19 21 20 17 16 16 16 15 14 13 14 14 14 16 15 14 14 13 13 14 16 20 24 24 24 25 16 12 12 13 12 10 11 9 8 8 9 12 16 18 20 20 19 18 17 10 9 9 9 9 10 8
20 18 13 12 12 12 12 13 12 11 9 8 9 10 10 11 12 14 14 12 12 12 12 12 5 6 8 10 11 11 8 15 20 23 20 17 15 16 17 16 16 14 13 13 15 14 15 14 13 13 13 12 14 19 18 24 23 25 26 21 13 13 12 11 11 11 10 10 9 10 9 13 20 22 21 21 19 15 12 10 9 9 8 7 9
17 15 12 10 12 12 13 14 14 13 12 12 12 12 12 12 13 16 14 10 11 9 7 8 9 10 13 12 14 17 11 6 5 8 9 12 13 14 15 16 15 15 16 15 15 14 14 14 12 13 13 11 13 24 17 21 25 26 26 23 15 13 13 12 12 11 11 9 10 10 9 15 22 22 22 21 19 15 14 10 11 12 13 14 10
13 14 16 14 12 13 15 14 11 11 12 12 12 12 12 12 13 15 11 8 8 4 7 5 2 1 9 12 13 10 8 8 13 13 13 14 14 13 13 14 15 15 15 16 16 14 14 13 12 11 11 10 13 15 24 21 23 25 26 22 19 13 16 15 13 13 13 11 10 10 12 20 22 23 22 21 18 17 10 5 11 13 14 15 11
11 14 15 12 14 15 13 12 11 10 11 11 10 12 12 11 14 12 6 5 5 5 6 7 9 7 10 7 10 14 13 12 15 16 16 16 16 14 14 14 15 15 14 15 14 13 13 13 14 12 11 10 12 12 17 26 23 25 24 22 17 18 19 14 12 11 11 10 10 11 15 22 22 22 21 20 19 16 9 10 10 13 13 12 7
8 11 11 11 13 15 15 15 13 11 11 12 12 12 12 13 13 11 8 7 6 5 5 8 9 9 7 7 9 9 13 17 18 17 16 15 15 14 14 14 15 13 14 14 14 14 15 14 13 13 12 10 10 11 15 19 26 25 25 21 15 20 19 18 13 9 10 10 12 18 22 21 21 20 21 20 17 16 14 12 11 11 10 6 6
13 13 12 12 11 11 11 13 15 15 13 11 10 10 11 10 11 13 9 4 3 4 4 6 8 8 8 9 8 6 6 7 14 10 15 16 17 16 14 14 14 14 14 15 14 14 13 13 12 11 12 10 10 10 8 10 15 21 21 18 14 19 18 17 13 11 15 16 20 21 21 21 20 18 15 11 10 10 12 13 11 9 5 6 5
13 15 15 13 12 12 12 13 15 14 12 12 12 9 7 4 6 8 7 11 8 6 6 5 5 5 5 6 7 5 6 6 10 7 10 13 14 14 14 14 14 14 14 14 14 13 13 13 12 12 11 10 11 10 8 7 8 10 12 12 7 10 12 14 11 8 11 13 18 18 15 17 15 19 17 15 12 11 9 8 6 5 5 5 5
12 10 13 13 12 12 13 15 14 8 8 11 10 11 8 5 3 5 5 8 8 8 7 7 6 3 3 2 2 4 4 4 8 10 12 12 14 14 14 15 15 15 16 15 14 14 15 15 13 12 11 10 11 11 11 11 11 11 14 9 7 9 10 10 10 9 11 14 14 13 14 10 10 9 8 7 7 7 7 8 6 6 5 4 6
15 11 9 10 8 9 13 13 9 4 9 7 6 6 7 5 5 6 6 9 11 9 8 7 5 4 3 3 5 5 4 3 6 8 9 9 12 14 15 14 14 13 14 14 15 14 14 14 13 13 13 12 11 13 13 13 17 18 18 16 12 12 11 10 13 17 14 10 10 11 10 10 10 11 10 9 8 8 7 7 8 7 5 5 5
15 13 14 14 8 5 10 12 8 6 5 5 4 3 6 5 3 3 5 8 10 10 10 9 6 5 4 3 3 6 6 4 5 6 8 9 12 15 10 12 11 12 15 15 12 11 12 11 12 10 12 13 12 8 16 19 21 22 23 23 17 17 17 14 17 21 16 12 11 11 10 10 11 11 11 11 11 10 10 9 8 9 8 7 6
17 18 19 19 13 7 7 10 10 7 7 7 8 7 8 6 3 3 5 8 10 8 7 7 6 6 5 4 2 2 5 6 5 3 2 6 5 6 14 7 12 14 15 15 14 16 16 13 11 9 8 14 20 23 25 23 25 26 26 23 19 18 19 21 22 17 12 13 12 11 11 11 11 11 11 12 11 11 9 9 9 9 8 9 7
Wind_Direction
174 180 179 172 174 167 163 159 157 156 161 164 164 167 161 161 163 164 164 158 168 169 178 180 187 190 206 195 181 165 176 203 216 197 170 192 183 168 168 165 186 192 184 188 178 174 198 177 165 187 175 182 186 196 182 164 132 122 101 114 189 159 173 172 102 125 133 112 125 89 53 1 332 263 250 253 166 136 137 174 173 164 158 185 169
175 179 180 174 171 166 161 161 159 156 166 166 170 172 164 164 166 161 164 165 173 179 178 187 192 191 192 195 172 169 179 199 209 208 169 183 189 177 166 168 182 190 186 183 184 178 191 175 174 183 189 187 185 184 191 158 150 151 129 155 244 176 152 167 169 150 149 147 144 121 79 358 320 306 271 271 229 156 151 192 165 164 163 173 183
176 181 175 176 171 167 164 161 167 166 168 177 175 169 159 163 166 165 169 167 173 179 185 189 187 191 194 194 176 167 188 204 205 208 166 176 184 180 162 172 179 189 189 179 188 184 186 191 179 184 197 187 177 189 184 174 161 158 149 144 182 182 124 156 188 197 148 155 134 129 183 176 245 258 266 262 260 181 163 182 165 185 179 170 156
181 184 180 166 172 166 164 168 170 165 169 173 171 166 162 166 168 166 168 170 173 183 190 188 188 193 196 199 185 178 185 191 213 199 171 172 180 180 166 175 179 188 187 186 192 188 182 202 183 179 188 194 182 183 184 180 166 161 149 143 141 163 155 181 196 170 187 144 169 202 177 186 187 221 208 228 239 204 211 178 170 191 196 158 150
194 182 181 167 172 171 170 169 169 170 172 174 171 171 171 171 170 170 170 171 175 182 187 181 184 194 203 197 176 196 172 182 210 193 187 170 172 183 182 174 181 187 185 192 192 184 185 198 196 183 182 191 184 186 191 185 176 172 164 159 160 158 165 198 214 203 202 180 156 178 143 213 234 178 179 202 227 199 210 194 167 193 205 153 161
197 178 180 184 172 174 169 170 173 175 177 175 173 176 173 174 170 170 166 169 175 178 184 186 181 194 198 184 179 188 190 185 202 188 180 175 180 176 189 179 184 189 190 192 192 186 184 194 200 189 182 187 192 194 185 184 183 180 177 167 169 153 149 196 208 219 208 194 219 207 151 177 217 135 168 185 204 215 206 196 175 183 222 160 167
204 189 187 188 184 169 171 170 171 174 177 172 175 176 178 175 170 171 168 169 168 173 183 186 189 199 201 195 186 185 191 193 192 194 177 174 182 175 187 183 187 189 197 190 191 189 184 187 199 201 181 188 186 196 193 186 187 185 168 171 176 159 150 184 198 197 214 218 216 223 195 195 233 152 208 114 171 215 243 186 188 178 210 219 178
201 210 192 190 189 176 174 177 175 176 172 173 177 178 178 178 170 170 170 169 173 172 182 191 194 199 194 194 190 190 201 188 183 200 177 169 184 174 186 186 188 191 195 195 193 189 184 183 193 198 194 188 190 201 198 184 180 183 174 170 177 172 163 166 180 180 191 201 204 217 219 202 237 269 315 181 173 171 230 214 180 180 177 216 227
210 207 208 184 188 189 181 176 176 173 169 175 178 178 175 178 178 172 166 168 173 174 181 192 196 194 191 188 189 195 200 195 181 193 185 171 179 173 181 187 189 191 191 198 194 195 186 184 188 190 202 199 186 197 196 187 186 177 168 170 175 170 166 153 158 174 181 182 189 208 196 198 208 206 228 178 190 219 194 187 185 188 169 200 225
198 214 212 189 177 180 186 181 173 169 174 175 175 174 175 175 180 177 168 168 173 176 183 193 197 186 184 192 194 191 194 199 180 187 189 174 182 175 180 188 185 191 191 196 198 199 187 187 191 191 194 207 186 195 195 188 181 186 170 172 175 169 152 154 165 160 170 191 203 183 182 197 221 235 215 204 226 218 250 181 186 176 201 214 195
215 208 219 201 177 181 180 183 181 176 168 168 175 176 172 171 181 183 176 170 174 181 184 191 197 185 185 191 197 195 189 197 184 182 187 184 188 178 181 183 182 187 191 190 196 200 185 187 196 196 189 201 197 191 195 187 175 184 170 170 177 179 156 164 162 160 172 194 197 184 189 189 198 202 219 199 205 216 199 244 176 194 196 201 203
256 205 216 215 163 181 175 172 179 172 170 172 174 174 175 173 174 180 187 181 177 183 187 193 193 184 184 189 199 201 189 195 191 182 184 189 187 184 181 180 184 184 190 191 191 195 185 185 195 202 193 193 201 197 185 184 166 176 174 172 178 181 163 163 172 177 180 183 200 195 206 224 211 190 204 198 187 225 240 247 219 193 202 207 172
258 246 221 209 169 178 180 177 178 178 176 182 176 174 173 172 172 177 185 190 185 185 189 194 191 183 183 191 198 203 198 196 194 187 182 186 184 188 184 184 183 188 187 192 192 191 187 184 191 200 195 188 192 195 188 182 168 171 177 176 179 183 171 168 175 185 187 188 195 189 217 229 234 202 209 209 198 208 197 246 275 261 218 192 142
243 250 244 245 238 172 183 180 186 183 184 181 175 174 174 176 176 180 186 187 191 192 190 194 197 188 185 188 193 197 198 195 197 192 183 186 184 188 184 184 188 194 185 191 190 194 192 184 187 196 202 188 186 190 190 185 166 173 176 180 183 186 177 177 180 181 186 188 180 192 208 225 244 228 211 210 232 226 216 217 262 282 284 111 146
234 237 242 246 245 243 195 189 182 182 179 177 176 176 176 177 178 184 185 186 193 196 195 195 197 196 190 188 189 194 196 193 195 192 185 188 187 190 184 185 191 192 191 184 188 199 194 185 187 195 199 199 184 185 188 182 166 175 175 179 179 176 182 172 180 172 187 196 201 203 219 218 230 228 204 213 210 210 201 198 213 259 275 178 164
223 215 213 221 228 227 224 188 189 181 179 178 178 176 178 180 181 183 187 187 189 194 198 197 198 199 198 193 187 188 194 193 194 191 191 191 187 189 184 183 188 186 189 183 190 197 198 190 187 194 193 198 187 183 183 187 175 173 175 178 180 173 181 179 187 188 195 200 204 202 209 220 218 209 197 204 222 224 225 211 192 215 239 269 190
252 241 223 211 212 217 208 193 185 180 176 178 177 176 177 177 178 183 188 189 191 193 195 195 198 199 201 200 190 186 189 192 194 196 195 185 186 185 183 184 183 186 188 187 187 196 200 196 191 192 192 195 192 184 184 186 179 176 176 176 183 181 183 188 187 193 195 199 195 199 211 215 218 216 210 204 190 206 234 240 220 210 212 229 229
258 278 295 300 263 226 206 199 184 175 181 180 178 175 177 177 177 182 184 187 190 191 194 197 199 199 198 197 194 190 189 193 196 194 194 187 187 185 181 183 189 186 185 187 186 192 200 198 201 195 189 191 192 186 185 187 183 178 178 172 181 179 185 188 191 186 182 175 185 199 204 217 215 227 214 203 204 201 196 208 233 239 224 221 232
302 296 296 296 286 288 234 193 176 172 172 177 181 177 177 176 178 182 185 188 186 187 193 198 199 200 199 196 193 191 191 191 192 195 196 194 187 187 187 185 182 180 183 186 187 190 199 201 201 197 189 189 192 187 185 186 184 176 179 175 178 185 190 183 177 172 182 179 192 205 198 204 216 230 227 208 209 203 204 213 229 222 264 236 168
263 273 273 271 282 279 267 227 179 167 169 168 175 185 192 183 177 179 187 190 187 189 193 199 201 202 199 197 197 196 193 191 190 192 197 199 191 188 186 186 185 178 182 185 187 194 198 203 199 201 191 189 191 190 186 186 181 175 176 177 181 179 180 180 178 185 194 193 192 199 201 202 204 216 222 217 209 210 200 207 216 197 216 333 27
217 240 259 266 268 277 283 294 261 187 178 172 171 179 184 194 195 187 187 189 190 192 194 200 202 203 199 196 195 194 194 193 193 193 196 200 198 190 191 188 178 182 181 184 188 195 199 202 200 203 195 190 192 191 189 184 181 175 174 178 184 179 180 181 183 191 202 215 200 198 199 203 202 213 221 199 151 159 151 192 222 209 206 227 172
223 214 235 244 258 292 360 350 8 322 186 185 187 190 184 198 196 193 200 201 196 194 194 199 201 202 201 196 195 195 194 194 196 193 195 197 200 194 191 186 184 183 182 186 189 193 199 198 199 201 202 194 195 195 189 183 181 177 173 178 187 186 187 189 180 199 206 203 221 229 213 201 201 201 187 180 152 165 179 171 224 224 198 217 193
352 312 307 325 330 311 313 334 327 343 325 217 191 193 192 195 197 197 202 204 200 193 209 205 200 204 203 197 195 194 195 194 196 196 197 198 198 196 188 187 187 179 182 187 190 197 201 196 196 198 202 202 195 198 188 184 182 179 175 178 188 189 187 191 183 199 207 203 204 212 244 257 213 195 166 169 167 186 196 192 201 213 218 196 182
7 323 311 310 306 318 308 273 273 291 288 296 255 220 203 199 198 199 204 199 184 184 168 256 283 239 205 199 197 196 194 194 197 200 200 200 197 196 189 188 187 177 180 185 189 199 206 194 193 197 200 202 199 195 185 187 183 178 178 181 186 186 185 186 194 195 203 204 193 201 219 234 226 187 171 189 201 183 195 185 195 207 208 193 189
261 289 296 286 286 288 284 268 259 254 244 249 251 252 261 215 202 202 200 194 194 189 176 181 206 260 239 202 199 195 194 194 196 199 202 200 198 195 193 189 185 182 182 186 194 203 203 196 193 196 199 201 199 190 182 188 186 179 180 182 183 187 188 187 191 195 202 199 195 193 199 218 196 169 184 193 197 184 180 185 188 208 186 186 166
275 273 253 261 273 279 272 275 266 244 251 254 247 250 249 262 240 205 210 194 186 187 187 190 194 210 225 210 201 196 195 195 196 199 200 198 197 196 192 190 184 182 183 186 196 205 201 199 197 193 198 202 195 186 184 188 187 181 183 185 181 185 193 188 188 189 195 191 194 186 191 211 181 175 187 184 189 178 179 197 188 196 172 145 106
245 239 246 248 253 265 276 281 279 276 258 237 243 242 243 247 259 262 221 201 193 184 186 192 196 205 211 206 203 201 196 195 195 198 198 197 196 196 193 190 184 183 185 188 196 201 195 197 197 194 199 205 195 186 187 188 188 186 187 186 183 182 183 189 191 188 202 195 187 193 194 203 176 178 182 184 181 176 186 207 180 187 164 129 132
245 222 249 248 238 243 261 266 270 275 276 272 253 240 234 230 235 245 252 219 191 191 190 191 196 201 206 205 201 199 201 198 197 198 197 196 194 195 195 190 186 184 187 191 195 197 191 192 196 197 202 206 196 191 189 185 191 186 186 188 183 176 178 185 192 193 201 194 185 190 193 196 173 178 183 182 174 178 184 192 181 177 139 143 151
299 267 242 248 243 239 240 244 247 244 249 262 268 263 256 245 222 221 229 233 199 194 194 196 199 203 203 204 199 197 200 203 201 198 196 194 195 195 194 189 185 187 189 193 193 193 191 195 201 201 201 200 198 192 190 184 185 186 186 187 182 178 179 185 192 195 189 175 184 188 190 193 171 176 179 177 174 172 178 177 187 150 147 149 161
264 271 268 247 237 235 238 243 242 242 243 239 243 253 257 256 246 222 217 225 208 195 196 198 200 203 204 204 201 197 199 202 203 200 196 193 194 193 193 193 189 189 189 190 192 191 194 199 202 202 199 199 199 197 189 179 181 185 184 185 182 181 180 185 182 178 175 179 189 184 189 187 168 172 173 175 170 165 165 174 172 151 153 155 173
255 258 242 244 264 259 251 246 245 238 239 248 251 247 241 247 254 247 228 218 216 197 198 197 203 203 201 201 201 199 200 203 202 201 197 195 193 191 190 194 192 187 187 189 189 191 196 200 201 203 200 201 201 197 182 175 180 179 180 182 180 179 181 188 180 171 168 180 185 181 180 171 164 159 156 141 123 111 101 111 130 126 133 165 178
260 268 280 270 255 250 250 244 242 235 235 236 237 242 247 239 239 250 247 227 222 213 202 199 199 197 198 193 195 203 204 202 202 201 199 196 193 192 191 192 192 188 186 184 188 192 196 199 199 202 203 204 205 188 173 175 174 174 174 176 174 174 177 184 182 169 167 173 178 180 147 144 153 150 144 131 121 114 111 106 106 102 89 65 60
256 257 258 260 258 256 252 239 251 253 245 250 258 257 257 258 249 245 244 242 234 229 209 201 193 194 193 190 193 206 217 211 201 201 198 195 194 193 192 191 190 189 185 185 191 191 193 199 200 201 205 203 207 177 172 171 170 171 170 166 174 175 178 187 183 167 166 171 171 172 142 160 150 148 147 145 137 121 112 114 108 101 90 95 85
270 247 242 241 248 257 271 278 344 310 297 300 300 303 301 287 262 244 251 259 248 242 228 205 196 194 189 193 197 202 210 220 212 200 198 195 194 193 191 191 190 186 185 187 190 192 193 197 199 201 202 201 202 170 172 170 166 165 163 162 174 178 183 189 179 165 165 170 168 175 154 162 153 160 160 155 149 139 137 127 132 133 120 104 98
280 273 243 252 294 306 303 303 290 294 309 302 295 297 301 297 273 248 243 259 260 258 261 225 202 195 191 194 198 200 201 208 227 214 198 197 194 192 190 189 188 185 187 188 189 192 195 196 197 198 201 200 194 169 169 168 165 162 162 161 173 180 184 190 175 168 169 168 165 174 160 167 161 169 170 165 157 154 147 145 152 155 145 143 134
284 294 295 278 255 248 262 268 266 269 271 275 282 293 294 296 292 261 242 244 253 256 251 251 220 200 194 196 201 200 195 201 211 214 204 198 194 192 190 186 186 188 190 189 190 193 192 195 198 197 197 200 174 169 169 165 164 164 161 168 173 178 178 178 169 169 172 166 163 171 159 168 167 171 172 163 159 153 154 157 159 161 149 140 139
275 276 292 297 283 266 251 246 249 252 259 264 274 286 291 290 292 280 245 245 248 250 256 250 231 212 201 196 198 189 189 201 207 226 215 200 193 190 190 185 186 187 186 188 189 189 192 193 194 194 194 199 165 174 169 165 164 164 164 176 171 175 175 172 169 169 173 167 167 170 161 169 167 173 164 160 154 150 162 166 168 164 163 155 156
265 261 264 264 267 264 259 218 212 231 239 247 252 257 268 285 291 291 280 255 240 243 249 252 244 227 213 208 199 194 191 192 204 221 223 206 195 189 189 182 185 185 188 190 188 188 191 192 191 195 193 195 157 169 171 167 166 170 172 176 174 174 176 171 170 171 171 173 171 170 165 168 165 166 159 161 155 154 167 169 167 162 165 170 163
292 286 302 318 311 269 243 242 227 240 243 245 251 254 263 275 277 275 273 269 252 246 243 249 250 239 222 209 201 189 189 188 203 225 231 211 195 191 187 182 187 189 189 190 189 189 190 190 191 195 189 180 143 169 176 169 171 175 176 181 176 177 178 179 172 162 166 172 172 173 170 162 162 151 159 161 163 163 170 172 165 164 170 178 174
284 271 252 259 284 305 294 284 276 265 257 258 260 259 251 247 254 258 259 258 253 247 248 247 247 225 23 321 277 209 195 197 204 210 223 215 195 190 186 183 185 186 185 186 188 190 189 191 189 190 185 175 154 159 179 173 175 179 181 181 182 179 181 172 162 161 166 178 171 172 172 163 146 152 162 165 171 172 168 162 159 170 174 184 172
271 271 271 259 262 263 261 265 271 275 279 277 271 265 259 258 259 256 246 252 266 262 250 252 234 228 216 226 248 272 250 220 207 208 212 216 195 190 183 182 181 184 182 184 187 190 190 190 187 188 185 174 164 166 176 177 179 183 188 186 188 186 177 163 161 162 174 175 172 169 173 149 151 159 163 170 173 174 156 155 161 178 193 176 171
265 271 270 261 265 273 275 273 273 279 282 272 259 255 251 253 258 262 261 255 264 269 272 267 249 219 219 217 231 233 200 204 272 315 299 247 213 190 184 179 179 181 181 183 185 186 188 188 187 186 188 175 157 167 167 179 183 188 190 191 188 186 175 162 163 170 174 180 174 167 157 158 159 162 167 170 169 170 155 156 180 181 181 178 179
260 261 253 248 253 262 263 260 262 272 273 270 270 262 260 262 261 265 264 259 266 256 254 249 143 338 286 255 233 238 220 215 210 197 212 239 233 200 184 180 179 181 180 180 182 183 185 188 187 188 188 166 149 165 172 175 186 189 192 196 189 177 165 166 168 173 179 175 170 157 155 159 162 166 167 166 171 173 155 145 166 163 171 172 166
274 265 267 279 276 270 270 278 280 268 272 274 268 271 271 270 269 271 262 256 238 230 249 266 264 197 195 217 246 244 229 232 225 203 195 209 223 200 181 181 179 178 180 180 181 181 183 186 188 187 187 167 163 167 173 175 181 190 194 194 189 173 169 170 171 172 173 167 161 152 157 160 163 164 163 166 171 171 154 143 150 155 159 162 160
294 296 290 287 284 281 276 275 273 279 280 278 277 276 278 281 286 286 270 253 236 238 238 263 264 255 234 192 213 227 221 217 215 201 193 195 212 198 181 182 179 177 179 178 181 182 184 187 187 186 184 170 163 166 143 178 178 185 193 193 193 173 175 166 168 166 161 166 148 148 151 156 157 159 162 167 172 173 149 148 155 161 158 163 163
322 308 294 289 284 286 293 290 285 282 281 284 286 285 277 277 294 288 282 296 273 263 252 241 257 273 277 262 241 260 267 259 258 209 194 195 196 192 181 178 181 181 182 181 182 182 184 184 185 182 179 165 159 157 123 151 182 184 187 190 193 179 172 167 158 156 158 138 137 147 149 149 152 156 160 164 170 170 155 149 154 163 168 166 171
320 316 311 304 299 293 288 285 286 286 296 293 279 275 273 323 4 15 346 286 287 275 258 241 236 259 278 299 311 323 303 277 258 259 234 201 197 187 177 179 184 182 184 187 184 180 181 182 184 179 167 148 160 154 142 138 149 167 185 181 174 170 159 144 137 130 124 128 138 145 157 158 156 160 160 162 157 145 143 144 153 172 177 167 170
338 314 308 298 296 304 306 300 290 299 296 300 311 330 347 357 357 9 332 306 292 281 272 265 266 250 211 211 267 261 266 278 261 222 227 222 202 185 181 185 187 185 186 189 185 182 184 183 181 175 160 152 160 166 160 158 168 170 181 163 167 166 168 156 143 144 143 133 138 139 134 133 132 138 143 149 149 157 161 156 163 173 182 177 175
345 336 312 290 294 323 322 310 309 308 288 291 310 333 318 350 24 347 326 301 288 282 276 273 277 263 230 164 177 168 166 207 275 270 263 249 221 198 188 190 190 191 189 188 188 185 184 180 180 177 166 164 165 176 182 162 164 173 176 176 180 175 165 163 154 141 130 122 118 132 138 143 151 154 156 161 160 163 172 172 172 178 184 183 186
344 342 348 338 319 357 341 330 309 294 306 300 312 341 322 337 21 337 306 285 272 268 271 267 247 235 229 184 166 165 170 175 222 253 279 290 315 296 237 188 186 189 175 177 173 184 181 175 175 180 180 171 176 146 122 150 168 175 185 183 174 166 164 153 147 143 135 134 140 141 149 153 161 165 167 169 169 172 172 178 184 184 186 190 194
342 349 352 355 339 357 359 337 338 346 334 345 0 2 339 342 340 277 285 276 275 278 275 270 263 263 253 221 185 158 135 163 196 268 282 249 257 316 343 293 182 151 154 154 158 156 160 168 164 152 148 124 127 141 156 170 173 178 179 179 177 176 162 148 138 122 119 134 141 151 165 171 174 174 174 171 170 171 174 176 181 183 189 190 191